Miscellaneous Local Product
Issued by NWS Hastings, NE

Home | Current Version | Previous Version | Text Only | Print | Product List | Glossary On
Versions: 1 2 3 4 5 6 7 8 9 10 11 12 13 14 15 16 17 18 19 20 21 22 23 24 25 26 27 28 29 30 31 32 33 34 35 36 37 38 39 40 41 42 43 44 45 46 47 48 49 50
000
AXUS43 KGID 211602
MISGRI

GID CWA HOURLY WEATHER ROUNDUP
NATIONAL WEATHER SERVICE HASTINGS NE
1100 AM CDT THU AUG 21 2014

NOTE: "FAIR" INDICATES FEW OR NO CLOUDS BELOW 12,000 FEET WITH NO
SIGNIFICANT WEATHER AND/OR OBSTRUCTIONS TO VISIBILITY.

...SOUTH CENTRAL NEBRASKA...

CITY           SKY/WX    TMP DP  RH WIND       PRES   REMARKS
GRAND ISLAND   PTSUNNY   80  69  69 S15       29.85R
HASTINGS       PTSUNNY   77  65  66 S13       29.85R
KEARNEY        MOSUNNY   81  70  69 S13       29.86R
ORD            MOSUNNY   79  67  66 W7        29.84R
YORK           CLOUDY    79 N/A N/A S12       29.83S
AURORA         CLOUDY    81  71  71 S15       29.85R
LEXINGTON      SUNNY     79  69  72 CALM      29.89R
HOLDREGE       MOSUNNY   79  69  70 S6        29.86R
HEBRON         HVY RAIN  74  68  80 SE6       29.86R

...NEBRASKA PANHANDLE...

CITY           SKY/WX    TMP DP  RH WIND       PRES   REMARKS
CHADRON        MOSUNNY   76  56  49 NE8       29.98R
ALLIANCE       SUNNY     79  51  37 N12       29.99R
SCOTTSBLUFF    SUNNY     75  55  49 W7        30.02S
SIDNEY         SUNNY     79  49  34 NW18G24   30.03R

...WESTERN AND NORTH CENTRAL NEBRASKA...

CITY           SKY/WX    TMP DP  RH WIND       PRES   REMARKS
VALENTINE      SUNNY     77  62  59 N13       29.92R
AINSWORTH      MOSUNNY   73  64  73 N12       29.90F
ONEILL         CLOUDY    76  71  85 NW10      29.85R
BROKEN BOW     MOSUNNY   79  66  64 N10       29.88R
IMPERIAL       SUNNY     80  54  40 N16       29.95R
NORTH PLATTE   SUNNY     83  62  49 NE9       29.90R
MCCOOK         MOSUNNY   82  62  50 S7        29.91R

...EASTERN NEBRASKA...

CITY           SKY/WX    TMP DP  RH WIND       PRES   REMARKS
NORFOLK        SUNNY     82  69  64 SW9       29.82S
SO SIOUX CITY  SUNNY     83  69  62 SW9       29.80S
TEKAMAH        MOSUNNY   85  70  60 S10       29.80S
COLUMBUS       MOSUNNY   82  70  65 SW13G21   29.83S
ALBION         SUNNY     80  68  67 SW6       29.84R
OMAHA EPPLEY   PTSUNNY   81  69  67 SE10      29.82S
MILLARD        PTSUNNY   81  70  70 E6        29.83R
LINCOLN        CLOUDY    76  68  76 S10       29.80F
NEBRASKA CITY  LGT RAIN  74  70  88 SW9       29.87S
BEATRICE       CLOUDY    76  72  87 SE5       29.87F
FALLS CITY     CLOUDY    85  71  63 SW7       29.88R HX  90

...NORTHERN KANSAS...

CITY           SKY/WX    TMP DP  RH WIND       PRES   REMARKS
GOODLAND       SUNNY     83  53  35 N14       30.00R
HILL CITY      PTSUNNY   83  66  56 NE5       29.86R
NORTON         SUNNY     79  64  61 CALM      29.87R
PHILLIPSBURG   RAIN      84  64  51 SE3       29.83S
SMITH CENTER   SUNNY     82  68  61 S12       29.84S
BELOIT         SUNNY     90  66  45 S8        29.83S HX  92
HAYS           SUNNY     88  66  48 SW14      29.86S HX  90
RUSSELL        SUNNY     90  65  43 SW20G26   29.84S HX  92
CONCORDIA      MOSUNNY   85  69  58 S10       29.86S
SALINA         SUNNY     90  66  45 S20G31    29.88R HX  92
TOPEKA         MOSUNNY   88  71  57 S13       29.90S HX  94



USA.gov is the U.S. government's official web portal to all federal, state and local government web resources and services.